Flag for Micronesia Weather past 2 weeks in Colonia, Yap, Micronesia

Now
80 °F

Mostly cloudy.


Feels Like: 87 °F
Forecast: 80 / 87 °F
Wind: 3 mph from North

Location: Yap Island

Current Time: Apr 28, 2015 at 12:07:20 AM

Latest Report: Apr 27, 2015 at 9:57 PM


Visibility: 12 mi

Pressure: 29.83 "Hg

Humidity: 92%

Dew point: 78 °F

Location of ColoniaLocation

Historic Weather in Colonia — Graph

°F

Colonia temperature yesterday

Maximum temperature yesterday: 85 °F (at 11:52 AM)
Minimum temperature yesterday: 79 °F (at 2:51 AM)
Average temperature yesterday: 82 °F

Past Weeks' High & Low Weather Summary

 TemperatureHumidityPressure
High88 °F (Apr 22, 12:52 PM)98% (Apr 26, 11:53 PM)29.94 "Hg (Apr 26, 11:53 PM)
Low75 °F (Apr 26, 3:01 PM)15% (Apr 17, 4:52 AM)29.71 "Hg (Apr 26, 4:55 AM)
Average82 °F85%29.83 "Hg
* Reported Apr 12 9:53 PM — Apr 27 9:57 PM, Colonia, Weather by CustomWeather, © 2015

Note: Actual official high and low records may vary slightly from our data, if they occured in-between our weather recording intervals... More about our weather records

Advertising

Colonia weather history for previous 24 hours

 ConditionsComfort  
Time TempWeatherWind HumidityBarometerVisibility
9:57 PM
Mon, Apr 27
80 °FMostly cloudy.3 mph92%29.83 "Hg12 mi
8:52 PM81 °FMostly cloudy.3 mph91%29.82 "Hg12 mi
7:50 PM81 °FMore clouds than sun.3 mph89%29.80 "Hg12 mi
6:53 PM82 °FMostly cloudy.3 mph88%29.78 "Hg12 mi
5:54 PM82 °FBroken clouds.5 mph86%29.75 "Hg12 mi
4:52 PM84 °FBroken clouds.8 mph82%29.73 "Hg12 mi
3:55 PM84 °FCloudy.8 mph82%29.74 "Hg12 mi
2:53 PM83 °FCloudy.8 mph84%29.75 "Hg12 mi
1:52 PM83 °FCloudy.12 mph86%29.78 "Hg12 mi
12:51 PM85 °FCloudy.9 mph84%29.79 "Hg12 mi
11:52 AM85 °FMostly cloudy.14 mph83%29.78 "Hg12 mi
10:51 AM84 °FMostly cloudy.14 mph87%29.80 "Hg12 mi
9:52 AM83 °FMostly cloudy.12 mph90%29.80 "Hg12 mi
8:50 AM82 °FCloudy.8 mph92%29.80 "Hg12 mi
7:53 AM81 °FCloudy.6 mph92%29.80 "Hg12 mi
6:53 AM80 °FOvercast.6 mph95%29.76 "Hg12 mi
5:53 AM80 °FOvercast.6 mph96%29.74 "Hg12 mi
4:53 AM80 °FOvercast.6 mph96%29.75 "Hg12 mi
3:52 AM80 °FOvercast.3 mph96%29.73 "Hg12 mi
2:51 AM79 °FOvercast.No wind97%29.73 "Hg12 mi
1:50 AM80 °FOvercast.3 mph96%29.76 "Hg12 mi
12:55 AM79 °FMostly cloudy.8 mph97%29.78 "Hg12 mi
Weather by CustomWeather, © 2015

See weather overviewHow to use our weather pages